Date String (YYYY-MM-DD hh:mm:ss) UTC,Instrument flags,Ambient pressure (hPa),Sample flow (lpm),Bypass flow (lpm),Sample temperature (°C),Ambient temperature (°C),ASC tube jacket temperature (°C),LED temperature (°C),Box temperature (°C),Sample RH (%),Span deviation,Mass concentration (μg/m³),Mass concentration (μg/m³),Mass concentration (μg/m³)
DateTimeUTC,F1_M11,P_M11,Q1_M11,Q2_M11,T1_M11,T2_M11,T3_M11,T4_M11,T5_M11,U1_M11,ZSPAN_M11,X2_M11,X0_M11,X1_M11
2022-07-07 16:00:00,,0829.0,4.99,0.00,30.9,27.8,00.0,39.4,31.9,33.9,0000.0,0006.48,0010.82,0005.79
2022-07-07 16:01:00,,0828.9,4.99,0.00,30.9,28.0,00.0,39.4,32.0,33.4,0000.0,0006.45,0010.81,0005.75
2022-07-07 16:02:00,,0829.1,5.00,0.00,30.9,28.1,00.0,39.4,32.0,34.7,0000.0,0006.43,0011.49,0005.74
2022-07-07 16:03:00,,0829.2,5.01,0.00,30.9,28.2,00.0,39.4,32.0,35.0,0000.0,0006.45,0011.77,0005.75
2022-07-07 16:04:00,,0829.2,5.00,0.00,30.9,28.4,00.0,39.4,32.0,35.0,0000.0,0006.43,0011.66,0005.76
2022-07-07 16:05:00,,0829.2,5.00,0.00,31.0,28.5,00.0,39.4,32.2,35.2,0000.0,0006.43,0011.30,0005.78
2022-07-07 16:06:00,,0829.3,4.99,0.00,31.2,28.6,00.0,39.4,32.3,34.7,0000.0,0006.49,0011.52,0005.83
2022-07-07 16:07:00,,0829.2,5.00,0.00,31.4,28.4,00.0,39.4,32.4,35.0,0000.0,0006.58,0011.49,0005.89
2022-07-07 16:08:00,,0829.2,5.00,0.00,31.6,27.9,00.0,39.3,32.4,34.5,0000.0,0006.61,0011.51,0005.92
2022-07-07 16:09:00,,0828.9,5.00,0.00,31.7,27.5,00.0,39.3,32.3,33.7,0000.0,0006.62,0011.72,0005.93
2022-07-07 16:10:00,,0829.2,5.01,0.00,31.7,27.4,00.0,39.4,32.1,33.0,0000.0,0006.66,0012.13,0005.95
2022-07-07 16:11:00,,0829.3,5.00,0.00,31.6,27.5,00.0,39.4,32.0,34.2,0000.0,0006.69,0012.42,0005.96
2022-07-07 16:12:00,,0829.2,5.00,0.00,31.6,27.6,00.0,39.4,32.0,34.6,0000.0,0006.70,0012.45,0005.98
2022-07-07 16:13:00,,0829.2,5.00,0.00,31.5,27.8,00.0,39.5,32.0,34.7,0000.0,0006.75,0011.83,0006.00
2022-07-07 16:14:00,,0829.3,5.00,0.00,31.5,28.0,00.0,39.5,32.0,34.7,0000.0,0006.77,0011.71,0006.00
2022-07-07 16:15:00,,0829.1,4.99,0.00,31.4,28.1,00.0,39.5,32.1,34.7,0000.0,0006.81,0012.80,0006.00
2022-07-07 16:16:00,,0829.2,5.00,0.00,31.4,28.3,00.0,39.6,32.1,35.4,0000.0,0006.84,0012.82,0006.01
2022-07-07 16:17:00,,0829.2,4.99,0.00,31.6,28.4,00.0,39.6,32.3,35.1,0000.0,0006.82,0012.64,0006.01
2022-07-07 16:18:00,,0829.0,5.00,0.00,31.8,28.5,00.0,39.6,32.4,33.5,0000.0,0006.75,0012.53,0005.96
2022-07-07 16:19:00,,0828.8,5.00,0.00,31.9,28.5,00.0,39.6,32.4,32.1,0000.0,0006.70,0012.91,0005.92
2022-07-07 16:20:00,,0829.0,5.01,0.00,32.0,28.0,00.0,39.6,32.3,31.6,0000.0,0006.65,0012.66,0005.88
2022-07-07 16:21:00,,0828.8,5.00,0.00,31.9,27.6,00.0,39.6,32.2,31.8,0000.0,0006.59,0012.22,0005.84
2022-07-07 16:22:00,,0828.9,4.99,0.00,31.9,27.4,00.0,39.6,32.1,32.2,0000.0,0006.56,0012.04,0005.81
2022-07-07 16:23:00,,0829.1,4.99,0.00,31.7,27.5,00.0,39.6,32.0,32.8,0000.0,0006.55,0012.40,0005.80
2022-07-07 16:24:00,,0828.9,5.00,0.00,31.6,27.6,00.0,39.7,32.0,32.2,0000.0,0006.48,0012.31,0005.74
2022-07-07 16:25:00,,0828.8,5.00,0.00,31.5,27.8,00.0,39.7,32.0,32.0,0000.0,0006.40,0012.03,0005.69
2022-07-07 16:26:00,,0828.8,4.99,0.00,31.5,27.9,00.0,39.7,32.0,32.4,0000.0,0006.35,0010.96,0005.64
2022-07-07 16:27:00,,0828.8,5.00,0.00,31.4,28.1,00.0,39.7,32.1,33.1,0000.0,0006.32,0010.90,0005.62
2022-07-07 16:28:00,,0828.9,4.99,0.00,31.4,28.2,00.0,39.7,32.1,33.5,0000.0,0006.31,0010.91,0005.62
2022-07-07 16:29:00,,0828.8,4.99,0.00,31.3,28.4,00.0,39.7,32.1,33.6,0000.0,0006.36,0011.00,0005.66
2022-07-07 16:30:00,,0828.8,5.00,0.00,31.3,28.5,00.0,39.7,32.2,34.4,0000.0,0006.44,0011.33,0005.71
2022-07-07 16:31:00,,0828.9,5.00,0.00,31.3,28.6,00.0,39.7,32.2,34.3,0000.0,0006.50,0011.21,0005.78
2022-07-07 16:32:00,,0828.8,5.01,0.00,31.3,28.2,00.0,39.6,32.2,34.6,0000.0,0006.56,0011.60,0005.85
2022-07-07 16:33:00,,0828.9,5.01,0.00,31.2,27.7,00.0,39.5,32.1,34.5,0000.0,0006.61,0011.71,0005.92
2022-07-07 16:34:00,,0828.8,5.00,0.00,31.2,27.5,00.0,39.5,32.0,34.5,0000.0,0006.64,0012.03,0005.96
2022-07-07 16:35:00,,0828.9,4.99,0.00,31.1,27.5,00.0,39.5,32.0,35.2,0000.0,0006.68,0012.78,0006.00
2022-07-07 16:36:00,,0828.9,5.00,0.00,31.1,27.6,00.0,39.5,32.0,35.6,0000.0,0006.70,0012.81,0006.03
2022-07-07 16:37:00,,0828.9,5.01,0.00,31.4,27.8,00.0,39.4,32.2,35.6,0000.0,0006.71,0012.83,0006.06
2022-07-07 16:38:00,,0828.9,5.00,0.00,31.7,27.9,00.0,39.4,32.3,34.5,0000.0,0006.73,0012.86,0006.08
2022-07-07 16:39:00,,0828.9,4.99,0.00,31.8,28.1,00.0,39.5,32.3,34.4,0000.0,0006.74,0012.80,0006.11
2022-07-07 16:40:00,,0828.9,5.00,0.00,31.9,28.2,00.0,39.5,32.3,34.5,0000.0,0006.73,0012.96,0006.14
2022-07-07 16:41:00,,0828.9,5.00,0.00,31.9,28.4,00.0,39.6,32.3,34.7,0000.0,0006.73,0012.80,0006.16
2022-07-07 16:42:00,,0828.8,5.00,0.00,31.9,28.5,00.0,39.6,32.3,34.4,0000.0,0006.76,0013.07,0006.17
2022-07-07 16:43:00,,0828.9,5.00,0.00,32.0,28.5,00.0,39.7,32.3,34.3,0000.0,0006.80,0013.22,0006.19
2022-07-07 16:44:00,,0828.9,5.01,0.00,32.0,28.0,00.0,39.7,32.3,34.7,0000.0,0006.84,0014.03,0006.20
2022-07-07 16:45:00,,0828.9,4.99,0.00,31.9,27.5,00.0,39.7,32.2,34.8,0000.0,0006.84,0013.53,0006.20
2022-07-07 16:46:00,,0828.9,5.02,0.00,31.9,27.4,00.0,39.7,32.1,34.6,0000.0,0006.85,0012.90,0006.21
2022-07-07 16:47:00,,0828.9,5.00,0.00,31.8,27.5,00.0,39.7,32.1,34.4,0000.0,0006.85,0012.84,0006.23
2022-07-07 16:48:00,,0828.9,5.00,0.00,31.7,27.6,00.0,39.7,32.0,34.6,0000.0,0006.90,0012.98,0006.27
2022-07-07 16:49:00,,0828.9,5.00,0.00,31.6,27.8,00.0,39.7,32.0,34.7,0000.0,0006.95,0013.64,0006.29
2022-07-07 16:50:00,,0828.9,5.02,0.00,31.5,28.0,00.0,39.7,32.1,34.6,0000.0,0006.98,0013.82,0006.30
2022-07-07 16:51:00,,0828.9,4.99,0.00,31.5,28.1,00.0,39.7,32.1,34.4,0000.0,0006.98,0013.97,0006.29
2022-07-07 16:52:00,,0828.9,5.01,0.00,31.5,28.3,00.0,39.7,32.2,34.7,0000.0,0006.95,0013.28,0006.27
2022-07-07 16:53:00,,0828.9,4.99,0.00,31.6,28.4,00.0,39.7,32.2,33.5,0000.0,0006.91,0013.23,0006.24
2022-07-07 16:54:00,,0828.9,5.00,0.00,31.6,28.5,00.0,39.7,32.3,33.9,0000.0,0006.83,0012.91,0006.20
2022-07-07 16:55:00,,0828.9,4.99,0.00,31.6,28.1,00.0,39.7,32.3,33.9,0000.0,0006.78,0011.93,0006.15
2022-07-07 16:56:00,,0828.9,5.00,0.00,31.6,27.6,00.0,39.6,32.2,34.1,0000.0,0006.76,0011.99,0006.13
2022-07-07 16:57:00,,0828.8,5.00,0.00,31.5,27.4,00.0,39.6,32.1,33.7,0000.0,0006.73,0012.54,0006.09
2022-07-07 16:58:00,,0828.8,4.99,0.00,31.4,27.5,00.0,39.6,32.0,35.4,0000.0,0006.71,0012.53,0006.06
2022-07-07 16:59:00,,0828.9,5.02,0.00,31.5,27.6,00.0,39.6,32.1,35.2,0000.0,0006.65,0012.36,0006.02
